Flag for Macedonia, Republic of Weather past 2 weeks in Ohrid, Macedonia, Republic of

Now
72 °F

Sunny.


Feels Like: 75 °F
Forecast: 55 / 72 °F
Wind: 2 mph from North

Location: Ohrid Airport

Current Time: Jul 30, 2014 at 9:04:31 AM

Latest Report: Jul 30, 2014 at 8:30 AM


Visibility: 10 mi

Pressure: 29.95 "Hg

Humidity: 69%

Dew point: 61 °F

Location of OhridLocation

Historic Weather in Ohrid — Graph

°F

Ohrid temperature yesterday

Maximum temperature yesterday: 82 °F (at 5:00 PM)
Minimum temperature yesterday: 52 °F (at 5:30 AM)
Average temperature yesterday: 71 °F

Past Weeks' High & Low Weather Summary

 TemperatureHumidityPressure
High84 °F (Jul 21, 4:00 PM)94% (Jul 15, 8:00 AM)30.09 "Hg (Jul 15, 8:00 AM)
Low52 °F (Jul 29, 5:30 AM)37% (Jul 19, 1:30 PM)29.80 "Hg (Jul 22, 12:30 PM)
Average69 °F71%29.98 "Hg
* Reported Jul 15 8:00 AM — Jul 30 8:00 AM, Ohrid, Weather by CustomWeather, © 2014

Note: Actual official high and low records may vary slightly from our data, if they occured in-between our weather recording intervals... More about our weather records

Advertising

Ohrid weather history for previous 24 hours

 ConditionsComfort  
Time TempWeatherWind HumidityBarometerVisibility
8:00 AM
Jul 30
68 °FSunny.2 mph78%29.95 "Hg10 mi
7:30 AM64 °FSunny.2 mph88%29.95 "Hg10 mi
7:00 PM
Jul 29
77 °FSunny.6 mph54%29.92 "Hg10 mi
6:30 PM79 °FScattered clouds.7 mph51%29.92 "HgN/A
6:00 PM81 °FScattered clouds.6 mph51%29.92 "HgN/A
5:30 PM82 °FScattered clouds.5 mph42%29.92 "HgN/A
5:00 PM82 °FScattered clouds.6 mph42%29.92 "HgN/A
4:30 PM79 °FScattered clouds.7 mph51%29.92 "HgN/A
4:00 PM79 °FScattered clouds.7 mph51%29.92 "HgN/A
3:30 PM79 °FScattered clouds.7 mph51%29.92 "HgN/A
3:00 PM79 °FScattered clouds.7 mph48%29.92 "HgN/A
2:30 PM77 °FScattered clouds.7 mph51%29.95 "HgN/A
2:00 PM77 °FScattered clouds.6 mph51%29.95 "HgN/A
1:30 PM77 °FScattered clouds.7 mph51%29.95 "HgN/A
1:00 PM77 °FScattered clouds.7 mph51%29.95 "HgN/A
12:30 PM75 °FScattered clouds.7 mph54%29.95 "HgN/A
12:00 PM73 °FPassing clouds.6 mph61%29.98 "HgN/A
11:30 AM73 °FPassing clouds.6 mph61%29.98 "HgN/A
11:00 AM72 °FPassing clouds.6 mph69%29.98 "HgN/A
10:30 AM70 °FPassing clouds.6 mph69%29.98 "HgN/A
10:00 AM70 °FSunny.5 mph69%29.98 "Hg10 mi
9:30 AM70 °FSunny.2 mph69%29.95 "Hg10 mi
9:00 AM70 °FSunny.2 mph69%29.95 "Hg10 mi
Weather by CustomWeather, © 2014

See weather overviewHow to use our weather pages